TimeCST,TemperatureF,Dew PointF,Humidity,Sea Level PressureIn,VisibilityMPH,Wind Direction,Wind SpeedMPH,Gust SpeedMPH,PrecipitationIn,Events,Conditions,WindDirDegrees,DateUTC
12:02 AM,12.2,8.6,85,30.14,1.8,SE,9.2,-,0.00,Snow,Light Snow,130,2013-01-18 06:02:00
12:06 AM,14.0,8.6,79,30.14,3.0,SE,9.2,-,0.00,Snow,Light Snow,130,2013-01-18 06:06:00
12:53 AM,12.9,9.0,84,30.19,7.0,SE,9.2,-,0.00,Snow,Light Snow,130,2013-01-18 06:53:00
1:33 AM,14.0,8.6,79,30.07,10.0,SE,11.5,-,0.00,,Overcast,130,2013-01-18 07:33:00
1:53 AM,14.0,9.0,80,30.15,10.0,ESE,12.7,-,0.00,,Overcast,120,2013-01-18 07:53:00
2:53 AM,15.1,10.0,80,30.11,10.0,SE,16.1,-,N/A,,Overcast,140,2013-01-18 08:53:00
3:37 AM,15.8,10.4,79,29.98,10.0,SE,17.3,-,N/A,,Overcast,140,2013-01-18 09:37:00
3:53 AM,16.0,10.0,77,30.05,10.0,SE,17.3,-,N/A,,Overcast,140,2013-01-18 09:53:00
4:53 AM,17.1,10.9,77,29.99,10.0,SSE,17.3,-,N/A,,Overcast,150,2013-01-18 10:53:00
5:53 AM,19.0,12.9,77,29.94,10.0,SSE,12.7,-,N/A,,Overcast,150,2013-01-18 11:53:00
6:53 AM,19.0,15.1,85,29.91,10.0,SSE,10.4,-,N/A,,Mostly Cloudy,160,2013-01-18 12:53:00
7:53 AM,18.0,15.1,88,29.88,10.0,SSE,4.6,-,N/A,,Clear,160,2013-01-18 13:53:00
8:53 AM,19.0,16.0,88,29.86,9.0,SE,4.6,-,N/A,,Mostly Cloudy,140,2013-01-18 14:53:00
9:53 AM,21.0,18.0,88,29.83,9.0,South,5.8,-,N/A,,Clear,170,2013-01-18 15:53:00
10:53 AM,26.1,21.0,81,29.83,10.0,SW,6.9,-,N/A,,Clear,220,2013-01-18 16:53:00
11:53 AM,28.9,23.0,78,29.80,10.0,WSW,8.1,-,N/A,,Clear,240,2013-01-18 17:53:00
12:53 PM,32.0,24.1,73,29.78,10.0,West,9.2,-,N/A,,Clear,270,2013-01-18 18:53:00
1:53 PM,30.9,24.1,76,29.76,10.0,WNW,11.5,-,N/A,,Clear,300,2013-01-18 19:53:00
2:53 PM,30.9,23.0,72,29.78,10.0,WNW,13.8,-,N/A,,Clear,290,2013-01-18 20:53:00
3:53 PM,30.0,23.0,75,29.79,10.0,WNW,8.1,-,N/A,,Clear,290,2013-01-18 21:53:00
4:53 PM,28.0,21.9,78,29.81,10.0,WNW,10.4,-,N/A,,Clear,290,2013-01-18 22:53:00
5:53 PM,28.0,23.0,81,29.81,10.0,WNW,8.1,-,N/A,,Clear,300,2013-01-18 23:53:00
6:53 PM,26.1,21.9,84,29.82,10.0,WNW,5.8,-,N/A,,Clear,290,2013-01-19 00:53:00
7:53 PM,24.1,19.9,84,29.81,10.0,WSW,4.6,-,N/A,,Clear,240,2013-01-19 01:53:00
8:53 PM,23.0,21.0,92,29.83,10.0,West,5.8,-,N/A,,Clear,260,2013-01-19 02:53:00
9:53 PM,21.9,21.0,96,29.82,7.0,WSW,4.6,-,N/A,,Clear,240,2013-01-19 03:53:00
10:35 PM,21.2,19.4,93,29.74,1.8,WSW,4.6,-,N/A,,Clear,240,2013-01-19 04:35:00
10:53 PM,23.0,21.0,92,29.81,1.5,WSW,4.6,-,N/A,,Scattered Clouds,240,2013-01-19 04:53:00
11:08 PM,19.4,19.4,100,29.73,1.0,Calm,Calm,-,N/A,,Mostly Cloudy,0,2013-01-19 05:08:00
11:11 PM,19.4,17.6,93,29.73,0.5,Calm,Calm,-,N/A,Fog,Light Freezing Fog,0,2013-01-19 05:11:00
11:24 PM,19.4,17.6,93,29.72,0.2,Calm,Calm,-,N/A,Fog,Light Freezing Fog,0,2013-01-19 05:24:00
11:53 PM,21.0,19.9,96,29.78,0.5,Calm,Calm,-,N/A,Fog,Light Freezing Fog,0,2013-01-19 05:53:00